Date Time,Air Temp,Sky Temp,Clarity,Light Level,Rain Sensor,Readings
2009-10-24 00:00:00,19.8,12.8,6.9,0.0,6.9,112
2009-10-24 00:05:00,19.8,12.6,7.2,0.0,11.1,111
2009-10-24 00:10:00,19.9,13.2,6.7,0.0,6.6,111
2009-10-24 00:15:00,19.5,13.1,6.4,0.0,5.4,111
2009-10-24 00:20:00,19.8,14.1,5.7,0.0,7.4,111
2009-10-24 00:25:00,19.8,13.4,6.5,0.0,4.8,112
2009-10-24 00:30:00,19.8,14.2,5.6,0.0,5.4,111
2009-10-24 00:35:00,19.8,13.7,6.1,0.0,4.7,111
2009-10-24 00:40:00,19.7,13.1,6.7,0.0,4.4,112
2009-10-24 00:45:00,19.7,12.1,7.6,0.0,4.0,112
2009-10-24 00:50:00,19.7,11.5,8.2,0.0,3.4,111
2009-10-24 00:55:00,19.7,11.5,8.2,0.0,2.7,111
2009-10-24 01:00:00,19.7,12.9,6.8,0.0,2.9,112
2009-10-24 01:05:00,19.7,13.3,6.4,0.0,4.0,111
2009-10-24 01:10:00,19.8,12.2,7.6,0.0,4.6,111
2009-10-24 01:15:00,19.8,13.2,6.6,0.0,5.9,112
2009-10-24 01:20:00,19.9,14.9,5.0,0.0,7.0,111
2009-10-24 01:25:00,20.0,13.9,6.1,0.0,5.7,111
2009-10-24 01:30:00,19.9,13.8,6.1,0.0,4.7,112
2009-10-24 01:35:00,19.6,13.8,5.8,0.0,5.9,111
2009-10-24 01:40:00,19.9,13.7,6.2,0.0,5.5,112
2009-10-24 01:45:00,19.9,13.8,6.2,0.0,5.7,111
2009-10-24 01:50:00,20.0,13.3,6.7,0.0,5.6,112
2009-10-24 01:55:00,20.0,13.8,6.2,0.0,4.6,111
2009-10-24 02:00:00,20.0,14.5,5.6,0.0,5.8,111
2009-10-24 02:05:00,20.1,13.8,6.2,0.0,3.2,112
2009-10-24 02:10:00,20.0,14.1,5.9,0.0,3.4,111
2009-10-24 02:15:00,20.0,14.7,5.3,0.0,4.2,111
2009-10-24 02:20:00,20.1,15.2,5.0,0.0,5.5,112
2009-10-24 02:25:00,20.2,14.5,5.7,0.0,3.7,111
2009-10-24 02:30:00,20.2,15.0,5.1,0.0,10.8,111
2009-10-24 02:35:00,20.3,15.2,5.2,0.0,14.2,112
2009-10-24 02:40:00,20.4,13.3,7.1,0.0,8.0,111
2009-10-24 02:45:00,20.4,15.9,4.5,0.0,14.6,112
2009-10-24 02:50:00,20.6,13.1,7.5,0.0,7.5,111
2009-10-24 02:55:00,20.4,13.0,7.4,0.0,2.8,111
2009-10-24 03:00:00,20.3,15.6,4.7,0.0,9.7,111
2009-10-24 03:05:00,20.6,17.2,3.4,0.0,21.2,111
2009-10-24 03:10:00,20.8,18.5,2.4,0.0,12.7,112
2009-10-24 03:15:00,20.9,17.0,3.9,0.0,8.3,112
2009-10-24 03:20:00,20.9,17.4,3.5,0.0,11.3,111
2009-10-24 03:25:00,20.5,16.1,4.4,0.0,4.8,111
2009-10-24 03:30:00,20.7,15.0,5.7,0.0,2.8,112
2009-10-24 03:35:00,20.6,14.4,6.2,0.0,2.5,111
2009-10-24 03:40:00,20.5,13.9,6.6,0.0,2.5,111
2009-10-24 03:45:00,20.5,11.4,9.1,0.0,2.5,112
2009-10-24 03:50:00,20.5,10.3,10.2,0.0,2.4,111
2009-10-24 03:55:00,20.5,10.2,10.3,0.0,2.7,112
2009-10-24 04:00:00,20.5,10.7,9.8,0.0,2.6,111
2009-10-24 04:05:00,20.5,10.2,10.3,0.0,2.4,111
2009-10-24 04:10:00,20.5,10.2,10.3,0.0,2.4,112
2009-10-24 04:15:00,20.4,10.3,10.1,0.0,2.3,112
2009-10-24 04:20:00,20.4,10.6,9.8,0.0,2.3,112
2009-10-24 04:25:00,20.4,10.7,9.7,0.0,2.2,111
2009-10-24 04:30:00,20.4,10.6,9.8,0.0,2.2,112
2009-10-24 04:35:00,20.4,10.4,10.0,0.0,2.3,111
2009-10-24 04:40:00,20.4,10.1,10.3,0.0,3.0,112
2009-10-24 04:45:00,20.5,10.6,9.8,0.0,2.5,112
2009-10-24 04:50:00,20.4,10.0,10.4,0.0,2.8,111
2009-10-24 04:55:00,20.4,10.6,9.9,0.0,2.4,112
2009-10-24 05:00:00,20.4,10.7,9.7,0.0,2.3,111
2009-10-24 05:05:00,20.5,10.8,9.7,0.0,2.2,111
2009-10-24 05:10:00,20.5,10.7,9.8,0.0,2.2,111
2009-10-24 05:15:00,20.5,10.7,9.8,0.0,2.2,112
2009-10-24 05:20:00,20.5,11.0,9.5,0.0,2.2,111
2009-10-24 05:25:00,20.6,10.9,9.6,0.0,2.2,112
2009-10-24 05:30:00,20.6,11.0,9.6,0.0,2.2,111
2009-10-24 05:35:00,20.6,10.5,10.0,0.0,2.3,111
2009-10-24 05:40:00,20.6,10.7,9.9,0.0,2.3,112
2009-10-24 05:45:00,20.6,10.8,9.8,0.0,2.2,111
2009-10-24 05:50:00,20.6,10.7,9.8,0.0,2.3,111
2009-10-24 05:55:00,20.6,10.7,9.8,0.0,2.2,112
2009-10-24 06:00:00,20.5,10.8,9.7,0.0,2.2,111
2009-10-24 06:05:00,20.5,10.8,9.7,0.0,2.2,112
2009-10-24 06:10:00,20.5,10.9,9.6,0.0,2.2,111
2009-10-24 06:15:00,20.5,10.2,10.3,0.0,2.4,112
2009-10-24 06:20:00,20.5,10.2,10.3,0.0,2.7,111
2009-10-24 06:25:00,20.5,10.6,9.8,0.0,2.3,112
2009-10-24 06:30:00,20.4,10.8,9.6,0.0,2.3,111
2009-10-24 06:35:00,20.4,10.7,9.8,0.0,2.3,112
2009-10-24 06:40:00,20.4,10.2,10.3,0.0,2.5,111
2009-10-24 06:45:00,20.4,10.3,10.1,0.0,2.8,112
2009-10-24 06:50:00,20.4,10.8,9.6,0.0,3.7,112
2009-10-24 06:55:00,20.4,10.2,10.2,0.1,2.4,111
2009-10-24 07:00:00,20.4,10.4,10.0,0.2,4.2,112
2009-10-24 07:05:00,20.6,13.5,7.1,0.6,16.7,111
2009-10-24 07:10:00,20.7,14.3,6.4,1.2,13.9,111
2009-10-24 07:15:00,20.7,13.4,7.3,2.4,6.7,112
2009-10-24 07:20:00,20.6,13.1,7.5,4.8,3.5,111
2009-10-24 07:25:00,20.5,13.2,7.3,8.1,3.4,111
2009-10-24 07:30:00,20.5,14.0,6.5,14.2,4.5,111
2009-10-24 07:35:00,20.6,14.7,6.0,20.7,4.9,112
2009-10-24 07:40:00,20.7,16.0,4.7,23.8,5.3,112
2009-10-24 07:45:00,20.8,16.5,4.3,25.7,8.4,111
2009-10-24 07:50:00,20.9,16.3,4.5,27.9,14.0,112
2009-10-24 07:55:00,21.0,17.3,3.7,29.6,11.7,111
2009-10-24 08:00:00,21.0,16.7,4.3,30.1,10.6,112
2009-10-24 08:05:00,20.9,16.1,4.8,30.4,9.0,111
2009-10-24 08:10:00,20.9,15.1,5.8,30.8,6.2,112
2009-10-24 08:15:00,20.9,15.6,5.3,31.1,5.7,111
2009-10-24 08:20:00,21.0,16.0,5.0,31.4,6.3,112
2009-10-24 08:25:00,21.0,15.9,5.2,31.4,5.4,111
2009-10-24 08:30:00,21.0,12.4,8.6,31.5,2.7,111
2009-10-24 08:35:00,20.9,11.1,9.8,31.6,2.4,111
2009-10-24 08:40:00,20.9,11.4,9.5,31.6,2.9,112
2009-10-24 08:45:00,21.0,11.5,9.5,31.8,3.5,111
2009-10-24 08:50:00,21.1,11.7,9.3,32.0,2.5,112
2009-10-24 08:55:00,21.1,11.1,10.0,32.1,5.3,111
2009-10-24 09:00:00,20.8,11.5,9.3,32.2,3.8,112
2009-10-24 09:05:00,21.2,11.6,9.6,32.0,2.4,111
2009-10-24 09:10:00,21.2,11.6,9.5,31.9,2.4,111
2009-10-24 09:15:00,21.2,11.1,10.1,31.8,2.5,112
2009-10-24 09:20:00,21.2,12.3,8.9,31.7,11.5,111
2009-10-24 09:25:00,21.5,15.5,6.0,31.8,20.2,112
2009-10-24 09:30:00,21.5,15.0,6.5,31.8,12.0,111
2009-10-24 09:35:00,21.5,15.4,6.1,31.9,12.8,112
2009-10-24 09:40:00,21.6,15.8,5.9,32.1,19.0,111
2009-10-24 09:45:00,21.7,15.4,6.3,32.1,16.7,111
2009-10-24 09:50:00,21.7,13.8,7.9,32.1,10.8,112
2009-10-24 09:55:00,21.7,13.9,7.8,32.2,13.5,111
2009-10-24 10:00:00,21.9,15.6,6.3,32.2,18.7,111
2009-10-24 10:05:00,21.9,15.6,6.3,32.1,11.9,111
2009-10-24 10:10:00,21.7,14.7,7.1,32.1,9.9,111
2009-10-24 10:15:00,21.7,15.4,6.3,32.2,14.1,112
2009-10-24 10:20:00,22.0,15.6,6.4,32.2,14.5,110
2009-10-24 10:25:00,21.9,14.2,7.7,32.1,8.2,112
2009-10-24 10:30:00,21.8,14.7,7.2,32.1,15.0,111
2009-10-24 10:35:00,22.0,13.7,8.3,32.1,12.0,111
2009-10-24 10:40:00,21.9,14.1,7.8,32.2,9.0,112
2009-10-24 10:45:00,22.0,15.3,6.7,32.4,18.7,111
2009-10-24 10:50:00,22.2,15.2,7.1,32.4,19.6,112
2009-10-24 10:55:00,22.2,14.5,7.7,32.3,11.7,111
2009-10-24 11:00:00,22.0,14.9,7.1,32.4,9.5,112
2009-10-24 11:05:00,22.0,14.6,7.4,32.4,13.0,111
2009-10-24 11:10:00,22.1,14.1,8.0,32.4,15.0,111
2009-10-24 11:15:00,22.2,13.6,8.6,32.4,9.2,111
2009-10-24 11:20:00,22.1,14.2,7.9,32.3,4.3,112
2009-10-24 11:25:00,22.0,14.0,7.9,32.3,4.9,111
2009-10-24 11:30:00,21.9,13.7,8.2,32.3,5.7,112
2009-10-24 11:35:00,22.0,16.3,5.7,32.3,17.0,111
2009-10-24 11:40:00,22.3,14.5,7.8,32.3,23.6,112
2009-10-24 11:45:00,22.4,14.5,7.9,32.3,22.3,111
2009-10-24 11:50:00,22.5,15.2,7.3,32.4,23.3,111
2009-10-24 11:55:00,22.5,15.0,7.5,32.3,22.7,111
2009-10-24 12:00:00,22.5,14.9,7.6,32.2,23.8,112
2009-10-24 12:05:00,22.5,14.9,7.7,32.3,23.5,111
2009-10-24 12:10:00,22.5,13.7,8.7,32.4,23.8,111
2009-10-24 12:15:00,22.4,15.2,7.2,32.4,23.5,112
2009-10-24 12:20:00,22.5,13.7,8.7,32.3,23.2,112
2009-10-24 12:25:00,22.4,14.1,8.3,32.3,22.0,111
2009-10-24 12:30:00,22.5,13.8,8.7,32.4,23.0,111
2009-10-24 12:35:00,22.5,12.6,9.9,32.4,22.2,112
2009-10-24 12:40:00,22.5,13.0,9.5,32.3,15.6,111
2009-10-24 12:45:00,22.5,12.3,10.2,32.3,8.3,111
2009-10-24 12:50:00,22.3,12.9,9.5,32.3,6.5,112
2009-10-24 12:55:00,22.2,12.1,10.1,32.3,4.3,111
2009-10-24 13:00:00,22.1,11.7,10.4,32.3,5.1,112
2009-10-24 13:05:00,22.2,12.1,10.1,32.3,4.3,111
2009-10-24 13:10:00,22.0,12.6,9.4,32.3,2.5,111
2009-10-24 13:15:00,21.9,12.7,9.2,32.3,4.5,111
2009-10-24 13:20:00,22.1,11.1,11.0,32.4,8.5,112
2009-10-24 13:25:00,22.3,11.5,10.8,32.4,7.3,112
2009-10-24 13:30:00,22.3,11.0,11.3,32.4,6.2,111
2009-10-24 13:35:00,22.3,10.6,11.7,32.4,5.2,111
2009-10-24 13:40:00,22.1,11.9,10.2,32.4,2.3,112
2009-10-24 13:45:00,21.7,11.7,10.0,32.4,2.3,111
2009-10-24 13:50:00,21.5,11.7,9.9,32.3,2.3,111
2009-10-24 13:55:00,21.4,11.9,9.5,32.3,2.3,111
2009-10-24 14:00:00,21.4,10.6,10.8,32.4,2.3,112
2009-10-24 14:05:00,21.4,10.1,11.3,32.4,2.3,111
2009-10-24 14:10:00,21.5,9.6,11.9,32.5,2.3,112
2009-10-24 14:15:00,21.7,8.2,13.5,32.5,2.3,111
2009-10-24 14:20:00,21.8,9.5,12.3,32.5,2.3,112
2009-10-24 14:25:00,21.8,10.0,11.8,32.5,2.3,111
2009-10-24 14:30:00,21.8,10.0,11.8,32.4,2.3,112
2009-10-24 14:35:00,21.7,9.1,12.7,32.5,2.3,111
2009-10-24 14:40:00,21.7,9.3,12.5,32.5,2.3,112
2009-10-24 14:45:00,21.8,8.7,13.0,32.5,2.3,111
2009-10-24 14:50:00,21.8,7.9,13.9,32.5,2.3,112
2009-10-24 14:55:00,21.8,9.3,12.5,32.5,2.3,111
2009-10-24 15:00:00,21.8,8.7,13.2,32.5,2.3,111
2009-10-24 15:05:00,22.0,7.1,14.9,32.6,2.3,112
2009-10-24 15:10:00,23.5,0.0,23.4,32.6,2.3,111
2009-10-24 15:15:00,26.4,-10.2,36.5,32.6,2.1,112
2009-10-24 15:20:00,27.5,-9.1,36.6,32.6,1.3,112
2009-10-24 15:25:00,27.7,-3.3,31.0,32.6,1.1,111
2009-10-24 15:30:00,27.4,3.3,24.1,32.5,1.1,112
2009-10-24 15:35:00,27.2,2.8,24.4,32.6,1.1,111
2009-10-24 15:40:00,27.2,3.3,23.9,32.5,1.1,112
2009-10-24 15:45:00,25.8,6.8,19.0,32.5,1.2,111
2009-10-24 15:50:00,23.8,3.6,20.2,32.5,2.2,112
2009-10-24 15:55:00,25.0,2.8,22.2,32.5,2.2,111
2009-10-24 16:00:00,26.0,-0.4,26.4,32.5,2.2,111
2009-10-24 16:05:00,26.5,-1.9,28.4,32.5,1.8,112
2009-10-24 16:10:00,26.6,1.0,25.5,32.5,1.4,111
2009-10-24 16:15:00,26.0,4.4,21.6,32.5,2.0,112
2009-10-24 16:20:00,26.1,3.9,22.2,32.5,2.1,111
2009-10-24 16:25:00,25.8,4.2,21.6,32.5,2.2,112
2009-10-24 16:30:00,24.9,5.7,19.1,32.5,2.1,111
2009-10-24 16:35:00,22.8,7.7,15.1,32.4,2.2,112
2009-10-24 16:40:00,21.9,5.6,16.3,32.4,2.3,111
2009-10-24 16:45:00,23.3,-0.1,23.4,32.4,2.3,112
2009-10-24 16:50:00,25.4,-1.5,26.8,32.5,2.3,111
2009-10-24 16:55:00,25.8,-3.6,29.4,32.4,2.2,112
2009-10-24 17:00:00,25.9,-2.8,28.8,32.4,2.3,112
2009-10-24 17:05:00,26.0,-0.5,26.5,32.4,2.3,111
2009-10-24 17:10:00,26.0,-0.3,26.3,32.4,2.3,111
2009-10-24 17:15:00,26.1,-10.6,36.8,32.5,2.2,112
2009-10-24 17:20:00,26.0,-11.5,37.5,32.4,2.3,111
2009-10-24 17:25:00,25.8,-10.4,36.2,32.3,2.2,112
2009-10-24 17:30:00,25.7,-4.6,30.2,32.2,2.3,111
2009-10-24 17:35:00,25.6,-8.7,34.3,32.2,2.3,112
2009-10-24 17:40:00,25.4,-9.5,34.9,32.1,2.3,111
2009-10-24 17:45:00,25.3,-11.7,37.0,32.0,2.2,112
2009-10-24 17:50:00,25.2,-14.2,39.4,31.8,2.3,111
2009-10-24 17:55:00,25.0,-14.3,39.3,31.5,2.3,112
2009-10-24 18:00:00,24.9,-13.5,38.4,31.0,2.3,111
2009-10-24 18:05:00,24.9,-13.8,38.6,30.2,2.3,112
2009-10-24 18:10:00,24.9,-12.0,36.9,28.8,2.3,111
2009-10-24 18:15:00,24.8,-13.1,37.8,26.0,2.3,112
2009-10-24 18:20:00,24.7,-9.6,34.3,21.4,2.3,111
2009-10-24 18:25:00,24.7,-10.6,35.3,15.9,2.3,112
2009-10-24 18:30:00,24.7,-14.3,39.0,9.9,2.3,112
2009-10-24 18:35:00,24.7,-13.0,37.7,5.8,2.3,111
2009-10-24 18:40:00,24.6,-11.4,36.0,3.2,2.3,111
2009-10-24 18:45:00,24.6,-13.3,37.9,1.7,2.3,112
2009-10-24 18:50:00,24.6,-14.0,38.6,0.8,2.3,111
2009-10-24 18:55:00,24.5,-13.6,38.2,0.4,2.3,111
2009-10-24 19:00:00,24.6,-2.7,27.3,0.2,2.3,111
2009-10-24 19:05:00,24.6,-7.9,32.5,0.1,2.3,112
2009-10-24 19:10:00,24.5,-12.8,37.3,0.1,2.3,111
2009-10-24 19:15:00,24.3,-3.9,28.2,0.0,2.3,112
2009-10-24 19:20:00,24.2,-2.7,26.9,0.0,2.3,112
2009-10-24 19:25:00,24.2,-3.2,27.4,0.0,2.3,111
2009-10-24 19:30:00,24.3,-3.8,28.1,0.0,2.3,112
2009-10-24 19:35:00,24.4,2.3,22.1,0.0,2.3,111
2009-10-24 19:40:00,24.1,4.0,20.1,0.0,2.3,111
2009-10-24 19:45:00,21.6,2.6,19.0,0.0,2.3,112
2009-10-24 19:50:00,21.3,1.4,19.9,0.0,2.3,111
2009-10-24 19:55:00,22.8,0.6,22.2,0.0,2.3,111
2009-10-24 20:00:00,23.9,0.9,23.1,0.0,2.3,112
2009-10-24 20:05:00,24.1,-6.9,30.9,0.0,2.3,111
2009-10-24 20:10:00,24.0,-16.3,40.3,0.0,2.3,111
2009-10-24 20:15:00,23.8,-16.0,39.8,0.0,2.3,112
2009-10-24 20:20:00,23.8,-15.9,39.8,0.0,2.3,111
2009-10-24 20:25:00,23.8,-16.1,39.9,0.0,2.3,112
2009-10-24 20:30:00,23.7,-15.5,39.2,0.0,2.3,111
2009-10-24 20:35:00,23.7,-8.3,32.0,0.0,2.3,112
2009-10-24 20:40:00,23.7,-14.9,38.6,0.0,2.3,112
2009-10-24 20:45:00,23.7,-3.3,27.0,0.0,2.3,111
2009-10-24 20:50:00,23.7,-15.5,39.2,0.0,2.3,112
2009-10-24 20:55:00,23.6,-12.6,36.3,0.0,2.3,111
2009-10-24 21:00:00,23.7,-11.4,35.1,0.0,2.3,111
2009-10-24 21:05:00,23.6,-9.2,32.8,0.0,2.3,112
2009-10-24 21:10:00,23.5,2.2,21.3,0.0,2.3,111
2009-10-24 21:15:00,21.7,3.5,18.3,0.0,2.3,112
2009-10-24 21:20:00,21.8,-11.4,33.2,0.0,2.3,111
2009-10-24 21:25:00,23.2,-17.1,40.2,0.0,2.3,112
2009-10-24 21:30:00,23.4,-17.0,40.4,0.0,2.3,111
2009-10-24 21:35:00,23.5,-17.4,40.8,0.0,2.3,111
2009-10-24 21:40:00,23.5,-17.3,40.8,0.0,2.3,112
2009-10-24 21:45:00,23.5,-17.1,40.6,0.0,2.3,111
2009-10-24 21:50:00,23.5,-17.2,40.6,0.0,2.3,112
2009-10-24 21:55:00,23.4,-17.0,40.5,0.0,2.3,111
2009-10-24 22:00:00,23.4,-17.4,40.8,0.0,2.3,112
2009-10-24 22:05:00,23.4,-17.2,40.6,0.0,2.3,111
2009-10-24 22:10:00,23.4,-16.8,40.1,0.0,2.2,112
2009-10-24 22:15:00,23.4,-16.9,40.3,0.0,2.3,111
2009-10-24 22:20:00,23.4,-17.0,40.4,0.0,2.2,112
2009-10-24 22:25:00,23.4,-16.9,40.3,0.0,2.2,111
2009-10-24 22:30:00,23.3,-17.2,40.6,0.0,2.3,111
2009-10-24 22:35:00,23.4,-17.5,40.8,0.0,2.2,112
2009-10-24 22:40:00,23.4,-17.5,40.8,0.0,2.2,111
2009-10-24 22:45:00,23.4,-17.4,40.8,0.0,2.2,111
2009-10-24 22:50:00,23.5,-17.2,40.7,0.0,2.2,112
2009-10-24 22:55:00,23.5,-17.2,40.7,0.0,2.2,112
2009-10-24 23:00:00,23.5,-16.9,40.4,0.0,2.2,111
2009-10-24 23:05:00,23.5,-16.6,40.1,0.0,2.2,112
2009-10-24 23:10:00,23.5,-16.8,40.2,0.0,2.2,111
2009-10-24 23:15:00,23.5,-16.7,40.2,0.0,2.3,112
2009-10-24 23:20:00,23.5,-16.6,40.1,0.0,2.3,111
2009-10-24 23:25:00,23.5,-16.8,40.3,0.0,2.3,111
2009-10-24 23:30:00,23.5,-16.6,40.1,0.0,2.3,112
2009-10-24 23:35:00,23.4,-12.5,35.9,0.0,2.3,112
2009-10-24 23:40:00,23.5,-13.5,37.0,0.0,2.3,111
2009-10-24 23:45:00,23.5,-16.3,39.8,0.0,2.3,112
2009-10-24 23:50:00,23.5,-16.1,39.7,0.0,2.2,111
2009-10-24 23:55:00,23.6,-16.3,39.8,0.0,2.2,112
